This demonstration page uses our WeatherBlox Daily Observations layout. Learn more.

39.29038, -76.61219

Hourly Observations for August 30, 2019

Temp ( °F °C ) Dew Point ( °F °C ) Humidity (%) Winds ( mph kmh ) Pressure ( in mb ) Visibility ( mi km ) Precip ( " mm )
12:54 am 00:54 undefined 71 21.7 58 14.4 63 63 undefined N/A 30.03 1017 N/A 0 0
1:54 am 01:54 undefined 69 20.6 57 13.9 66 66 undefined N/A 30.04 1017 N/A 0 0
2:54 am 02:54 undefined 68 20 58 14.4 70 70 undefined N/A 30.04 1017 N/A 0 0
3:54 am 03:54 undefined 67 19.4 58 14.4 73 73 undefined N/A 30.04 1017 N/A 0 0
4:54 am 04:54 undefined 67 19.4 57 13.9 71 71 undefined N/A 30.04 1017 N/A 0 0
5:54 am 05:54 undefined 65 18.3 58 14.4 78 78 undefined N/A 30.06 1018 N/A 0 0
6:54 am 06:54 undefined 65 18.3 57 13.9 76 76 undefined N/A 30.06 1018 N/A 0 0
7:54 am 07:54 undefined 70 21.1 57 13.9 64 64 undefined N/A 30.06 1018 N/A 0 0
8:54 am 08:54 undefined 75 23.9 58 14.4 55 55 undefined N/A 30.07 1018 N/A 0 0
9:54 am 09:54 undefined 81 27.2 57 13.9 44 44 undefined N/A 30.08 1019 N/A 0 0
10:54 am 10:54 undefined 84 28.9 58 14.4 41 41 undefined N/A 30.08 1019 N/A 0 0
11:54 am 11:54 undefined 86 30 58 14.4 39 39 undefined N/A 30.07 1018 N/A 0 0
12:54 pm 12:54 undefined 87 30.6 58 14.4 37 37 undefined N/A 30.05 1018 N/A 0 0
1:54 pm 13:54 undefined 89 31.7 59 15 36 36 undefined N/A 30.04 1017 N/A 0 0
2:54 pm 14:54 undefined 90 32.2 61 16.1 38 38 undefined N/A 30.02 1017 N/A 0 0
3:54 pm 15:54 undefined 90 32.2 62 16.7 39 39 undefined N/A 30.01 1016 N/A 0 0
4:54 pm 16:54 undefined 89 31.7 60 15.6 38 38 undefined N/A 30.02 1017 N/A 0 0
5:54 pm 17:54 undefined 88 31.1 60 15.6 39 39 undefined N/A 30.02 1017 N/A 0 0
6:54 pm 18:54 undefined 87 30.6 59 15 39 39 undefined N/A 30.02 1017 N/A 0 0
7:54 pm 19:54 undefined 84 28.9 61 16.1 46 46 undefined N/A 30.04 1017 N/A 0 0
8:54 pm 20:54 undefined 81 27.2 61 16.1 51 51 undefined N/A 30.06 1018 N/A 0 0
9:54 pm 21:54 undefined 81 27.2 61 16.1 51 51 undefined N/A 30.09 1019 N/A 0 0
10:54 pm 22:54 undefined 79 26.1 61 16.1 54 54 undefined N/A 30.09 1019 N/A 0 0
11:54 pm 23:54 undefined 78 25.6 60 15.6 54 54 undefined N/A 30.1 1019 N/A 0 0

Powered by AerisWeather